Theta_e
280 281 281 281 281 281 280 280 281 281 282 282 282 283 283 283 284 285 287 289 289 293 297 304 308 317 324 326 326 330 325 326 330 325 327 327 325 322
281 281 281 281 281 281 281 280 280 281 281 281 281 282 282 282 283 284 284 285 286 287 289 297 305 306 318 322 324 329 326 324 325 324 328 327 326 324
281 281 281 282 281 281 281 281 280 280 281 281 281 281 282 282 282 282 283 284 285 286 288 289 297 305 308 314 318 326 329 325 323 325 326 327 327 326
282 282 283 283 283 283 282 282 281 280 280 280 281 281 281 281 282 283 283 283 284 286 287 289 291 294 304 307 312 319 327 328 324 324 324 326 327 326
283 283 283 284 284 284 284 283 282 281 280 280 280 281 281 281 282 282 282 284 285 287 290 293 294 295 299 304 305 319 320 328 326 325 326 326 327 326
283 284 285 285 285 286 285 284 283 281 281 280 280 281 281 281 281 282 283 284 285 291 291 291 292 292 295 302 303 309 319 327 327 326 326 328 323 325
284 285 284 285 285 285 283 283 283 282 281 281 281 281 281 281 281 282 282 283 285 288 290 290 295 297 297 298 303 305 313 320 326 327 327 326 327 327
284 284 284 285 286 286 285 285 284 283 283 283 282 281 281 281 281 282 283 283 287 288 289 290 290 291 293 297 303 303 308 318 318 325 327 327 325 327
284 284 284 285 285 285 286 286 286 285 285 285 285 284 284 283 283 283 283 284 284 285 286 288 289 290 290 294 300 302 305 308 313 324 324 328 325 324
284 284 284 284 284 285 286 286 287 286 285 284 284 284 284 283 283 283 283 284 285 285 286 288 287 288 289 292 298 301 304 304 311 321 324 324 323 327
284 283 284 283 284 285 287 287 287 287 286 286 286 285 284 283 284 284 283 284 284 285 285 286 287 287 290 292 296 301 305 304 308 320 322 323 325 325
283 283 282 282 283 285 285 286 285 286 287 287 286 285 285 285 284 285 286 286 285 285 285 287 290 292 292 297 299 300 306 304 306 314 320 323 325 326
283 282 282 281 283 284 285 285 285 285 286 287 287 287 286 285 284 284 283 284 284 285 286 286 287 289 289 290 294 299 303 304 304 310 319 320 322 325
281 281 281 282 283 283 283 283 284 285 286 287 287 287 287 287 286 286 285 285 285 285 286 286 288 289 291 291 292 294 300 304 302 305 313 317 318 323
281 281 282 281 281 281 282 282 283 283 284 285 286 287 287 287 287 287 286 286 287 287 288 289 289 289 290 291 292 291 293 299 300 303 308 311 314 317
280 281 280 280 280 280 281 282 282 282 282 283 284 285 286 287 287 287 287 287 288 289 288 290 290 290 291 291 290 290 291 294 299 302 302 303 311 313
281 280 279 278 279 279 280 280 281 281 281 282 282 283 285 286 287 288 288 288 288 288 288 289 290 290 290 289 289 289 290 292 294 298 300 302 304 311
278 278 277 277 278 278 279 280 280 280 281 281 281 282 282 284 286 286 288 288 288 289 289 289 289 289 289 289 289 289 289 290 292 293 298 301 305 307
276 276 277 277 278 278 279 279 279 280 280 280 281 281 282 282 283 284 285 286 287 287 288 287 287 288 287 288 289 289 289 290 291 293 298 300 302 305
276 276 277 277 278 278 279 279 280 280 280 280 280 281 281 282 282 282 283 284 284 285 286 286 286 286 287 289 289 288 288 289 291 293 295 299 302 303
276 276 277 277 278 279 279 280 280 280 280 281 281 281 281 281 282 282 282 282 283 284 284 284 285 285 286 287 288 288 289 289 290 291 293 296 299 302
276 277 277 278 278 279 279 280 280 281 281 281 282 282 282 282 282 282 282 282 282 283 283 283 284 284 284 285 286 287 289 289 289 291 292 293 297 300
276 277 277 277 278 278 278 279 280 280 281 282 282 282 282 282 282 282 282 282 282 282 282 283 283 283 283 284 284 285 287 288 289 290 291 292 297 300
Wind_Speed
28 27 27 27 28 29 31 32 32 39 45 35 34 37 38 36 31 34 37 37 37 36 35 42 32 38 55 57 44 62 61 58 59 50 54 55 50 46
26 26 27 27 29 30 31 32 33 37 47 37 39 43 41 41 40 35 35 37 37 38 32 40 43 32 45 45 49 60 65 62 59 54 54 56 54 51
24 26 27 27 30 32 33 35 36 36 41 49 42 42 44 41 42 39 36 34 34 34 31 31 43 42 33 39 36 52 58 63 62 58 60 61 56 56
25 26 28 30 33 33 34 36 37 38 38 49 44 43 43 41 38 34 36 35 32 30 28 27 32 38 42 35 37 40 65 69 66 64 62 60 58 56
24 27 29 31 37 41 41 41 39 38 37 45 44 39 42 38 36 38 36 32 27 24 22 22 26 34 45 30 31 43 50 66 70 68 65 67 63 61
27 31 34 36 39 38 42 43 42 39 38 42 40 40 39 38 33 35 34 31 26 19 25 26 26 28 34 46 35 32 50 68 66 68 70 73 62 54
31 30 33 33 34 36 39 40 38 39 37 38 39 39 38 33 32 30 33 32 26 22 24 23 13 18 28 43 41 23 39 46 63 71 70 68 67 63
29 31 30 31 32 31 35 40 45 45 45 43 42 41 40 36 33 30 31 31 26 17 16 23 26 28 32 34 44 38 24 50 40 78 73 72 66 63
29 29 29 28 28 32 32 28 33 36 41 44 46 47 46 42 39 38 38 34 37 35 30 32 30 35 29 29 42 45 28 25 39 51 71 70 65 61
26 27 27 28 28 28 31 33 34 35 35 36 40 42 43 39 35 34 33 33 33 35 27 33 35 38 34 28 34 45 41 28 34 48 50 61 54 60
23 24 25 29 28 27 29 31 37 44 39 39 38 37 37 33 29 30 34 35 37 33 30 30 36 36 31 28 24 40 44 31 29 53 56 66 66 62
26 24 28 28 26 26 28 32 33 32 39 38 36 33 33 35 32 32 33 34 33 35 32 21 17 22 11 7 12 25 41 32 24 34 59 63 62 60
27 30 32 30 24 27 27 28 30 29 30 32 40 35 31 26 26 30 33 35 35 37 35 29 29 29 29 27 19 15 30 30 21 19 51 62 64 64
28 30 30 26 27 25 24 24 24 26 24 28 33 39 34 32 29 22 24 29 31 34 24 27 28 23 19 22 25 23 23 34 21 15 27 47 60 67
26 26 25 25 24 23 20 20 21 19 17 14 18 28 35 32 28 26 27 24 24 26 25 24 26 25 22 23 23 24 22 33 28 17 17 18 36 59
26 21 25 27 20 18 18 17 16 16 14 15 18 20 20 22 31 21 22 23 26 26 27 24 24 24 26 23 24 27 25 18 14 16 21 14 21 35
23 26 27 20 18 18 18 17 16 15 16 16 16 16 16 8 23 25 22 21 25 26 24 20 17 17 20 21 27 29 26 24 26 27 26 23 15 25
22 22 19 18 18 18 19 19 18 17 16 16 14 13 13 13 14 7 21 27 27 30 25 21 18 18 21 26 26 27 23 24 31 30 23 22 19 13
16 17 17 17 18 17 17 18 19 18 17 15 16 15 14 13 13 15 17 15 15 18 20 19 20 20 22 27 25 21 19 21 20 20 21 21 24 19
16 17 16 17 17 17 18 18 18 18 17 17 17 15 13 13 13 13 14 16 20 23 26 26 24 24 25 25 25 29 24 24 20 17 18 20 21 24
16 15 15 17 17 17 18 17 17 18 18 18 16 16 15 15 15 14 15 15 16 20 23 26 25 22 24 23 27 30 21 18 23 22 14 15 19 22
14 16 15 17 17 18 18 18 18 20 20 18 18 19 19 17 17 17 16 16 18 21 25 25 23 20 19 20 29 24 21 22 19 19 22 19 15 6
15 15 17 19 19 19 20 20 20 23 20 19 20 23 22 20 19 19 20 19 19 21 23 25 25 23 23 23 24 29 25 26 21 15 25 27 26 25
Wind_Direction
285 286 287 290 287 284 280 277 276 287 288 291 293 294 293 293 280 278 277 276 278 272 265 255 254 235 223 231 221 223 230 229 219 229 226 221 221 221
289 289 288 288 287 285 282 278 272 272 280 284 286 290 292 292 292 290 284 281 278 278 275 262 258 259 236 225 228 217 224 227 228 228 223 225 222 220
289 288 287 288 286 285 283 279 273 270 270 281 282 285 287 288 290 294 291 286 282 279 274 273 262 259 255 239 235 222 223 224 226 227 225 225 223 220
291 289 290 292 290 288 285 281 277 274 267 275 281 284 286 290 294 293 292 290 288 281 278 274 265 265 260 254 249 220 216 216 223 225 227 225 219 219
296 296 296 296 293 290 286 280 277 274 270 272 275 279 284 287 287 290 294 293 291 284 279 279 271 259 257 263 273 234 231 212 222 220 223 230 223 220
299 300 302 299 298 297 289 284 278 271 269 270 271 274 277 282 282 287 290 288 291 285 278 282 286 270 258 256 269 264 241 222 218 226 223 217 213 221
299 303 302 301 304 296 282 277 276 269 267 267 268 271 272 275 275 283 282 293 285 283 291 284 279 261 253 254 258 278 249 237 218 223 223 221 224 227
298 299 297 296 292 294 277 266 265 266 265 266 268 267 271 270 280 277 279 288 288 291 279 283 282 280 270 251 252 263 257 236 230 222 219 222 220 226
299 300 300 297 295 296 295 288 270 263 263 269 268 268 272 274 277 275 276 277 278 281 288 280 281 284 284 252 247 256 272 253 235 210 224 223 219 220
298 302 299 301 302 299 296 293 286 280 267 259 258 266 272 273 270 272 273 276 281 277 277 281 279 283 292 263 241 249 256 289 253 210 214 217 224 221
311 308 305 304 300 297 297 299 295 277 281 276 271 269 265 265 265 269 268 267 270 271 273 276 279 288 289 273 243 248 251 279 291 225 220 223 220 220
313 307 309 306 299 296 300 300 299 295 284 272 275 270 267 262 263 259 260 260 261 269 276 262 282 294 291 282 219 242 240 267 285 245 225 222 222 225
314 313 310 311 304 302 301 296 294 297 284 283 273 270 269 271 264 255 254 256 258 258 258 265 270 272 289 293 284 253 243 247 280 238 221 219 223 222
312 310 313 314 309 303 300 301 298 297 290 277 280 264 266 268 266 268 258 253 255 259 265 262 266 273 286 282 291 287 250 244 286 284 219 219 223 225
309 309 303 309 308 303 306 305 305 304 292 307 295 271 269 272 272 273 268 266 260 261 262 260 264 270 268 275 281 285 288 252 262 283 238 219 210 224
319 309 313 311 307 309 311 314 317 318 315 306 291 285 284 287 264 268 267 263 269 265 274 267 261 260 262 271 282 287 284 272 236 251 273 278 212 214
309 308 312 318 321 324 324 325 325 327 323 318 311 305 275 300 263 262 262 261 264 262 265 269 252 268 261 272 278 281 284 277 271 263 268 279 252 214
309 316 324 329 330 331 332 332 333 332 329 328 326 316 308 294 275 288 256 253 257 261 261 262 264 267 274 274 271 276 284 288 274 267 258 273 268 215
317 329 333 335 336 337 337 337 337 338 335 333 332 325 316 306 294 279 269 260 258 262 261 266 261 269 272 271 278 283 292 288 278 268 253 255 266 252
335 333 337 338 338 338 337 337 336 338 338 340 334 332 327 317 308 297 284 276 268 265 265 264 260 261 264 269 272 278 281 273 274 267 250 254 266 264
336 337 342 341 339 338 337 336 337 339 338 331 334 335 334 327 316 308 298 287 281 279 278 275 271 267 262 267 274 274 280 274 270 264 251 256 256 262
337 336 339 341 336 333 334 336 335 338 336 334 334 335 327 320 319 313 305 301 288 276 272 274 276 275 266 260 261 267 273 274 270 261 251 242 238 228
335 333 333 333 332 329 326 325 330 334 335 333 333 332 330 325 316 312 307 302 301 290 280 278 280 277 270 262 264 261 260 266 268 266 252 245 233 237